Simultaneous Nadir Overpasses (SNOs) Predictions

Prediction of SNOs between GOES-14 and AQUA Satellite Orbit:

Table of predicted SNOs for the next 14.0 days since TLE Epoch: 8/13/2022
Index Date Time (GOES-14) GOES-14 Lat,Lon AQUA Lat,Lon Distance(km) Time Diff (sec)
1 08/13/2022 08:48:06 -0.46,-104.44 0.04,-106.74 261.99 80
2 08/15/2022 08:32:47 -0.45,-104.43 -0.64,-103.66 88.07 80
3 08/15/2022 20:54:05 0.46,-104.65 -0.41,-108.83 475.69 80
4 08/17/2022 08:20:07 -0.45,-104.43 -1.27,-100.58 438.41 80
5 08/17/2022 20:41:25 0.46,-104.65 0.23,-105.75 124.64 80
6 08/19/2022 20:31:25 0.47,-104.66 0.88,-102.67 226.11 80
7 08/20/2022 08:52:33 -0.48,-104.46 0.21,-107.79 377.90 80
8 08/22/2022 08:39:53 -0.49,-104.46 -0.45,-104.71 27.76 80
9 08/24/2022 08:24:33 -0.49,-104.46 -1.12,-101.63 322.41 80
10 08/24/2022 20:45:49 0.50,-104.64 0.04,-106.79 244.35 80
11 08/26/2022 20:35:49 0.50,-104.65 0.73,-103.71 106.80 80
